FLOCK 3M-2 (42998 NORAD) Tracking and Keplerian Element Data

This shows tracking and keplerian element data for the satellite.

Feedback or suggestion? Click here.




ElementValue
Catalog42998
NameFLOCK 3M-2
Epoch Orbit23899
Epoch Day51.1167627
Epoch Year2022
RAAN162.7902
Inclination97.4327
Eccentricity0.0012766
Argument of Perigee116.3213
Mean Anonmoly243.9338
Mean Motion15.26532935
Decay Rate5.094E-05
L11 42998U 17068M 22051.11676270 .00005094 00000+0 19738-3 0 9992
L22 42998 97.4327 162.7902 0012766 116.3213 243.9338 15.26532935238996



Live tracking and technical data element details for FLOCK 3M-2 (NORAD 42998). FLOCK 3M-2 can be tracked NOW for your location showing map with azimuth and elevation plus other details from your city location.







IsCatalogInMostPopularTable: catalog: 42998, numindb: 672
Update: records affected: 1



GetName: 42998 FLOCK 3M-2

Hit Count: updated at: Mon, 17 Jun 2024 22:51:58 GMT